Ephrata, WA
on Sunday, January 27, 2013

Sunday
Previous Day Next Day
Daily Summary
 ActualAverageRecord
Temperature
Mean Temperature °F 31°F  
Max Temperature 31°F 38°F 54°F (1962)
Min Temperature 29°F 24°F -20°F (1957)
Degree Days
Heating Degree Days 35 34  
Month to date heating degree days 1052 986  
Since 1 July heating degree days 3307 3572  
Cooling Degree Days 0 0  
Month to date cooling degree days 0 0  
Year to date cooling degree days 0 0  
Moisture
Dew Point 27°F   
Average Humidity 89    
Maximum Humidity 92    
Minimum Humidity 85    
Precipitation
Precipitation 0.00 in 0.02 in 0.40 in (1954)
Month to date precipitation 0.18 0.81  
Year to date precipitation 0.18 0.81  
Wind
Wind Speed 2 mph   
Max Wind Speed 25 mph   
Max Gust Speed 30 mph   
Visibility 8 miles   
Events     

Key: T is trace of precipitation, MM is missing value
Source: NWS Daily Summary
Time(PST)TemperatureDew PointHumidity Pressure Visibility Wind DirectionWind SpeedGust SpeedPrecipitationEvents Conditions
12:53 AM 30.0°F 26.1°F 85% 30.01 in 10.0 miles South 3.5 mph - N/A   Overcast
1:53 AM 28.9°F 26.1°F 89% 30.01 in 10.0 miles South 3.5 mph - N/A   Overcast
2:53 AM 28.9°F 27.0°F 92% 30.02 in 9.0 miles Calm Calm - N/A   Overcast
3:53 AM 28.9°F 27.0°F 92% 30.01 in 8.0 miles Calm Calm - N/A   Overcast
4:53 AM 28.9°F 27.0°F 92% 30.02 in 7.0 miles Calm Calm - N/A   Overcast
5:53 AM 28.9°F 27.0°F 92% 30.02 in 8.0 miles Calm Calm - N/A   Overcast
6:53 AM 28.9°F 27.0°F 92% 30.03 in 6.0 miles Calm Calm - N/A   Overcast
7:53 AM 30.0°F 27.0°F 88% 30.03 in 5.0 miles Calm Calm - N/A   Overcast
8:53 AM 30.0°F 28.0°F 92% 30.04 in 6.0 miles Calm Calm - N/A   Overcast
9:53 AM 30.0°F 27.0°F 88% 30.05 in 6.0 miles Calm Calm - N/A   Overcast
10:53 AM 30.0°F 27.0°F 88% 30.05 in 9.0 miles SSE 3.5 mph - N/A   Overcast
11:53 AM 30.9°F 28.0°F 89% 30.04 in 9.0 miles Variable 3.5 mph - N/A   Overcast
12:53 PM 30.9°F 28.0°F 89% 30.02 in 8.0 miles South 4.6 mph - N/A   Overcast
1:53 PM 30.9°F 28.0°F 89% 30.00 in 8.0 miles Calm Calm - N/A   Overcast
2:53 PM 30.0°F 28.0°F 92% 30.00 in 8.0 miles SSE 4.6 mph - N/A   Overcast
3:53 PM 30.9°F 28.0°F 89% 30.01 in 9.0 miles Calm Calm - N/A   Overcast
4:53 PM 30.9°F 28.0°F 89% 30.00 in 9.0 miles Calm Calm - N/A   Overcast
5:53 PM 30.9°F 27.0°F 85% 29.99 in 10.0 miles Calm Calm - N/A   Overcast
6:53 PM 30.9°F 27.0°F 85% 29.99 in 10.0 miles North 3.5 mph - N/A   Overcast
7:53 PM 30.9°F 27.0°F 85% 29.98 in 10.0 miles NNE 3.5 mph - N/A   Overcast
8:53 PM 30.9°F 27.0°F 85% 29.98 in 10.0 miles North 4.6 mph - N/A   Overcast
9:53 PM 30.9°F 28.0°F 89% 29.98 in 10.0 miles NE 3.5 mph - N/A   Overcast
10:53 PM 30.0°F 28.0°F 92% 29.97 in 9.0 miles Calm Calm - N/A   Overcast
11:53 PM 30.9°F 28.0°F 89% 29.97 in 8.0 miles North 3.5 mph - N/A   Overcast
Moon Phase
Jan. 27 Feb. 03 Feb. 10 Feb. 17 Feb. 25
Sunrise:07:29 AM (PST) Moon Rise:05:59 PM (PST)1/27
Sunset:04:52 PM (PST) Moon Set:07:18 AM (PST)1/27

Copyright © 2014 The Weather Underground, Inc.